Location: Poughquag
(41.6090°N, 73.6820°W)
Time: 12:51:26
(UTC-04:00)

Tiros 1 despin weight - Pass Details

Date: 31 May 2020
Orbit: 593 x 642 km, 48.2° (Epoch: 07 July)

Event Time Altitude Azimuth Distance (km) Brightness Sun altitude
Rises 09:22:57 0° 191° (SSW) 2,920 ? 42.2°
Reaches altitude 10° 09:26:05 10° 170° (S) 2,010 ? 42.8°
Maximum altitude 09:28:50 16° 133° (SE) 1,659 ? 43.3°
Drops below altitude 10° 09:31:35 10° 96° (E) 2,002 ? 43.8°
Sets 09:34:41 0° 75° (ENE) 2,902 ? 44.4°
